sat.trackr.live / text

‹ back to catalog

STARLINK-11703 [DTC]

NORAD 63759 · 2025-089J

PAYLOAD ACTIVE UNKNOWN

§ Identity

Operator
Country
US
Launch date
2025-04-29
Launch site
AFETR
Launch vehicle
Mass (kg)
RCS (m²)

Purposes: comms

External: N2YO · Heavens-Above · Gunter

§ Orbital elements

Epoch: 2026-09-20T20:51:07.175520Z

Period
91.67 min
Inclination
43.0020°
Eccentricity
0.0001958
Mean motion
15.70820786 rev/d
Perigee alt
355.2 km
Apogee alt
357.9 km
Semi-major
6,734.7 km
B*
1.1716e-3
RAAN
195.6289°
Arg perigee
285.4098°
Mean anomaly
74.6553°
Rev number
8,083

§ Raw data

STARLINK-11703 [DTC]1 63759U 25089J   26263.86883305  .00152548  00000+0  11716-2 0  99962 63759  43.0020 195.6289 0001958 285.4098  74.6553 15.70820786 80833

JSON: /api/v1/satellites/63759 · /tle

For live sub-satellite position, see the globe view (requires WebGL).

§ Visibility from observer

Set your observer location to see the next 7 days of passes ≥ 10°. The values pass through the URL so the page stays shareable.

No JS? Fill the form by hand. The geolocation button needs JavaScript.